Find Starlink 30338

NORAD ID: 57718 Int'l Des: 2023-129 Owner: SPXS Country: US Constellation: starlink operational
LEOCIRCULAR

Live Position

Loading 3D Globe...

About Starlink 30338

Description loading...

Upcoming Passes

Passes for default location (London). Set your location on the main map for personalized predictions.

Altitude History

Loading altitude history...

Two-Line Element Set

1 57718U 23129W 26127.76195619 .00001653 00000-0 69580-4 0 9994
2 57718 43.0040 144.5657 0001238 274.4258 85.6452 15.27580106149716
Epoch: May 7, 2026 • Age: 7 hours

Current Status

Altitude 482.4 km
Velocity 7.63 km/s
Sub-Earth Point 13.35°N, 63.44°E
Launch Date Aug 27, 2023
Age 2.6 years
Type internet

Technical Details

Classification Payload
Mass 730.00 kg
Dry Mass 700.00 kg
Total Mass 730.00 kg
Length 0.30 m
Diameter 4.10 m
Span 29.00 m
Shape Box + pan
Manufacturer SPXS
Bus Type Starlink V2M
Phase Status In Orbit
Owner/State SPXS/US

Most Searched